FIN152 EFHK-KATL

Flight info

Callsign FIN152
Flight time 5h 20m
Altitude 38000
Route ADIVO Y365 POGOK DCT RUNGA DCT ANW DCT BEDLA DCT KSD DCT TOR DCT IDIPI M125 ZOL P600 KLONN DCT SPA DCT SUGAR DCT FORTY DCT OVDAN/N0466F240 P600 LESNI/N0485F380 DCT INSCH DCT NESDI DCT 57N005W DCT TOBMO DCT TIR DCT MIMKU DCT 56N011W 56N012W 56N013W 56N014W DCT PIKIL/M085F390 DCT 57N020W 57N030W 57N040W 56N050W DCT JANJO/N0499F400 N714B YBC Q910 GADAL DCT SYR J59 PSB Q71 GEFFS DCT HVQ DCT HLRRY ONDRE1
Aircraft A359/H-SDE2E3GHIJ3J4J5LM1ORWXY/LB1D1

Departure

Time 2026-05-04 21:33
Airport Helsinki Vantaa Airport (EFHK)

Arrival

Time 2026-05-05 02:53
Airport Hartsfield Jackson Atlanta International Airport (KATL)
Time Latitude Longitude Altitude Speed Heading
2026-05-04 21:02 60.31663 24.96037 170 ft 0 kts 137°
2026-05-04 21:24 60.31672 24.96019 170 ft 3 kts 137°
2026-05-04 21:24 60.31686 24.95991 170 ft 3 kts 122°
2026-05-04 21:25 60.31695 24.95953 170 ft 3 kts 101°
2026-05-04 21:25 60.31696 24.95913 170 ft 3 kts 80°
2026-05-04 21:25 60.31690 24.95873 170 ft 3 kts 59°
2026-05-04 21:25 60.31687 24.95862 170 ft 0 kts 52°
2026-05-04 21:29 60.31689 24.95868 170 ft 4 kts 52°
2026-05-04 21:29 60.31741 24.95976 170 ft 14 kts 42°
2026-05-04 21:29 60.31824 24.96147 170 ft 19 kts 59°
2026-05-04 21:30 60.31889 24.96408 170 ft 23 kts 52°
2026-05-04 21:30 60.32005 24.96672 170 ft 27 kts 47°
2026-05-04 21:30 60.32167 24.96833 170 ft 26 kts 338°
2026-05-04 21:30 60.32331 24.96640 170 ft 28 kts 328°
2026-05-04 21:31 60.32698 24.96189 173 ft 32 kts 328°
2026-05-04 21:31 60.32892 24.95965 178 ft 32 kts 332°
2026-05-04 21:31 60.33090 24.95729 180 ft 33 kts 323°
2026-05-04 21:32 60.33190 24.95415 186 ft 25 kts 252°
2026-05-04 21:32 60.33116 24.95112 197 ft 23 kts 255°
2026-05-04 21:32 60.33117 24.94805 193 ft 22 kts 273°
2026-05-04 21:32 60.33122 24.94494 202 ft 22 kts 264°
2026-05-04 21:33 60.33039 24.94219 206 ft 25 kts 228°
2026-05-04 21:33 60.32818 24.93731 194 ft 84 kts 227°
2026-05-04 21:33 60.32240 24.92469 176 ft 157 kts 227°
2026-05-04 21:33 60.31450 24.90728 799 ft 170 kts 227°
2026-05-04 21:34 60.30709 24.88983 1607 ft 161 kts 240°
2026-05-04 21:34 60.30586 24.86718 1912 ft 176 kts 282°
2026-05-04 21:34 60.30958 24.84252 2226 ft 193 kts 284°
2026-05-04 21:34 60.31323 24.81558 2592 ft 208 kts 281°
2026-05-04 21:35 60.31641 24.78566 2903 ft 226 kts 279°
2026-05-04 21:35 60.31759 24.75373 3517 ft 230 kts 269°
2026-05-04 21:35 60.31705 24.72114 4115 ft 236 kts 267°
2026-05-04 21:35 60.31627 24.68772 4755 ft 239 kts 268°
2026-05-04 21:36 60.31545 24.65411 5427 ft 240 kts 267°
2026-05-04 21:36 60.31464 24.62028 6135 ft 242 kts 267°
2026-05-04 21:36 60.31384 24.58610 6827 ft 244 kts 267°
2026-05-04 21:36 60.31309 24.55222 7534 ft 245 kts 266°
2026-05-04 21:37 60.31221 24.51767 8280 ft 248 kts 266°
2026-05-04 21:37 60.31132 24.48290 9033 ft 249 kts 266°
2026-05-04 21:37 60.31039 24.44774 9769 ft 252 kts 266°
2026-05-04 21:37 60.30943 24.41221 10412 ft 256 kts 266°
2026-05-04 21:38 60.30850 24.37622 11095 ft 258 kts 265°
2026-05-04 21:38 60.30756 24.34002 11844 ft 258 kts 265°
2026-05-04 21:38 60.30658 24.30424 12550 ft 260 kts 265°
2026-05-04 21:38 60.30559 24.26771 13293 ft 261 kts 265°
2026-05-04 21:39 60.30459 24.23109 13961 ft 262 kts 265°
2026-05-04 21:39 60.30357 24.19421 14559 ft 265 kts 265°
2026-05-04 21:39 60.30254 24.15701 15189 ft 266 kts 264°
2026-05-04 21:39 60.30149 24.11945 15815 ft 268 kts 264°
2026-05-04 21:40 60.30042 24.08176 16439 ft 270 kts 264°
2026-05-04 21:40 60.29933 24.04374 17058 ft 272 kts 264°
2026-05-04 21:40 60.29821 24.00600 17639 ft 274 kts 264°
2026-05-04 21:40 60.29602 23.96702 17954 ft 285 kts 259°
2026-05-04 21:41 60.29241 23.92695 18181 ft 297 kts 258°
2026-05-04 21:41 60.28795 23.88519 18416 ft 310 kts 257°
2026-05-04 21:41 60.28307 23.84202 18654 ft 322 kts 257°
2026-05-04 21:41 60.27796 23.79722 18878 ft 334 kts 257°
2026-05-04 21:42 60.27271 23.75069 19107 ft 346 kts 257°
2026-05-04 21:42 60.26734 23.70262 19387 ft 356 kts 257°
2026-05-04 21:42 60.26190 23.65354 19833 ft 361 kts 257°
2026-05-04 21:42 60.25648 23.60459 20383 ft 363 kts 258°
2026-05-04 21:43 60.25099 23.55495 20947 ft 365 kts 258°
2026-05-04 21:43 60.24545 23.50493 21539 ft 366 kts 258°
2026-05-04 21:43 60.23987 23.45476 22082 ft 368 kts 258°
2026-05-04 21:43 60.23422 23.40428 22656 ft 370 kts 258°
2026-05-04 21:44 60.22855 23.35370 23222 ft 372 kts 258°
2026-05-04 21:44 60.22279 23.30266 23672 ft 375 kts 258°
2026-05-04 21:44 60.21701 23.25149 24076 ft 378 kts 258°
2026-05-04 21:44 60.21113 23.19954 24508 ft 381 kts 258°
2026-05-04 21:45 60.20520 23.14737 24923 ft 384 kts 258°
2026-05-04 21:45 60.19921 23.09493 25346 ft 387 kts 258°
2026-05-04 21:45 60.19319 23.04246 25755 ft 390 kts 258°
2026-05-04 21:45 60.18706 22.98930 26174 ft 392 kts 258°
2026-05-04 21:46 60.18084 22.93562 26593 ft 395 kts 258°
2026-05-04 21:46 60.17456 22.88145 26980 ft 398 kts 258°
2026-05-04 21:46 60.16822 22.82711 27376 ft 401 kts 258°
2026-05-04 21:46 60.16190 22.77303 27773 ft 403 kts 258°
2026-05-04 21:47 60.15543 22.71797 28166 ft 406 kts 257°
2026-05-04 21:47 60.14889 22.66246 28517 ft 409 kts 257°
2026-05-04 21:47 60.14228 22.60663 28881 ft 412 kts 257°
2026-05-04 21:47 60.13563 22.55059 29230 ft 414 kts 257°
2026-05-04 21:48 60.12890 22.49414 29570 ft 417 kts 257°
2026-05-04 21:48 60.12216 22.43801 29881 ft 419 kts 257°
2026-05-04 21:48 60.11531 22.38132 30282 ft 418 kts 257°
2026-05-04 21:48 60.10844 22.32471 30652 ft 417 kts 257°
2026-05-04 21:49 60.10155 22.26807 31006 ft 417 kts 257°
2026-05-04 21:49 60.09465 22.21159 31358 ft 417 kts 257°
2026-05-04 21:49 60.08782 22.15586 31692 ft 416 kts 257°
2026-05-04 21:49 60.08091 22.09959 32026 ft 416 kts 257°
2026-05-04 21:50 60.07397 22.04330 32347 ft 416 kts 257°
2026-05-04 21:50 60.06700 21.98698 32669 ft 415 kts 257°
2026-05-04 21:50 60.06239 21.94979 32890 ft 415 kts 257°
2026-05-04 21:50 60.05313 21.87546 33313 ft 414 kts 257°
2026-05-04 21:51 60.04611 21.81948 33620 ft 414 kts 257°
2026-05-04 21:51 60.03910 21.76366 33866 ft 414 kts 257°
2026-05-04 21:51 60.03203 21.70772 34056 ft 415 kts 257°
2026-05-04 21:51 60.02722 21.66970 34176 ft 416 kts 257°
2026-05-04 21:52 60.02018 21.61423 34355 ft 417 kts 257°
2026-05-04 21:52 60.01057 21.53888 34597 ft 419 kts 256°
2026-05-04 21:52 60.00576 21.50139 34714 ft 419 kts 256°
2026-05-04 21:52 59.99851 21.44490 34885 ft 420 kts 256°
2026-05-04 21:53 59.99123 21.38841 35057 ft 421 kts 256°
2026-05-04 21:53 59.98374 21.33165 35228 ft 422 kts 256°
2026-05-04 21:53 59.97594 21.27496 35379 ft 423 kts 255°
2026-05-04 21:53 59.96797 21.21827 35537 ft 425 kts 255°
2026-05-04 21:54 59.95994 21.16156 35689 ft 426 kts 255°
2026-05-04 21:54 59.95195 21.10526 35842 ft 427 kts 255°
2026-05-04 21:54 59.94389 21.04835 35995 ft 427 kts 255°
2026-05-04 21:54 59.93580 20.99116 36144 ft 428 kts 255°
2026-05-04 21:55 59.92770 20.93394 36298 ft 429 kts 255°
2026-05-04 21:55 59.91955 20.87653 36434 ft 430 kts 255°
2026-05-04 21:55 59.91136 20.81903 36580 ft 431 kts 255°
2026-05-04 21:55 59.90313 20.76151 36712 ft 432 kts 255°
2026-05-04 21:56 59.89486 20.70390 36838 ft 433 kts 255°
2026-05-04 21:56 59.88657 20.64631 36975 ft 433 kts 255°
2026-05-04 21:56 59.87823 20.58859 37115 ft 434 kts 255°
2026-05-04 21:56 59.86986 20.53082 37241 ft 434 kts 255°
2026-05-04 21:57 59.86154 20.47368 37367 ft 435 kts 255°
2026-05-04 21:57 59.85307 20.41568 37478 ft 436 kts 255°
2026-05-04 21:57 59.84456 20.35763 37597 ft 437 kts 255°
2026-05-04 21:58 59.82741 20.24114 37678 ft 442 kts 254°
2026-05-04 21:58 59.81002 20.12404 37678 ft 444 kts 254°
2026-05-04 21:59 59.79248 20.00668 37679 ft 444 kts 254°
2026-05-04 21:59 59.77478 19.88902 37680 ft 444 kts 254°
2026-05-04 22:00 59.75727 19.77175 37680 ft 444 kts 257°
2026-05-04 22:00 59.74735 19.65155 37688 ft 444 kts 266°
2026-05-04 22:01 59.74457 19.52913 37685 ft 445 kts 268°
2026-05-04 22:01 59.69325 15.88055 37737 ft 32000 kts 268°
2026-05-04 22:01 58.38698 8.50941 36634 ft 32000 kts 268°
2026-05-04 22:02 56.56550 -5.74006 36634 ft 32000 kts 268°
2026-05-04 22:02 56.14716 -8.72212 37668 ft 444 kts 268°
2026-05-04 22:02 56.14869 -8.77698 38005 ft 437 kts 282°
2026-05-04 22:02 56.15560 -8.83006 38151 ft 438 kts 282°
2026-05-04 22:03 56.15940 -8.88460 38111 ft 442 kts 272°
2026-05-04 22:03 56.15295 -8.99441 38104 ft 450 kts 259°
2026-05-04 22:04 56.14399 -9.10606 38107 ft 454 kts 271°
2026-05-04 22:04 56.15281 -9.21771 38109 ft 459 kts 284°
2026-05-04 22:04 56.61604 -12.17621 38159 ft 32000 kts 285°
2026-05-04 22:05 56.74014 -19.54982 37031 ft 32000 kts 285°
2026-05-04 22:05 56.28904 -34.63663 37031 ft 32000 kts 285°
2026-05-04 22:05 56.99685 -39.18526 37825 ft 457 kts 288°
2026-05-04 22:06 57.00850 -39.23895 38129 ft 450 kts 300°
2026-05-04 22:06 57.02016 -39.29133 38268 ft 450 kts 286°
2026-05-04 22:06 57.02555 -39.34875 38258 ft 452 kts 276°
2026-05-04 22:07 57.02285 -39.46369 38248 ft 455 kts 267°
2026-05-04 22:07 57.01557 -39.57938 38249 ft 456 kts 266°
2026-05-04 22:08 57.00840 -39.69485 38245 ft 455 kts 266°
2026-05-04 22:08 57.00179 -39.81010 38242 ft 454 kts 266°
2026-05-04 22:09 56.99536 -39.92548 38239 ft 454 kts 266°
2026-05-04 22:09 56.98886 -40.04062 38237 ft 453 kts 266°
2026-05-04 22:10 56.98226 -40.15502 38229 ft 453 kts 266°
2026-05-04 22:10 56.97549 -40.27007 38229 ft 453 kts 266°
2026-05-04 22:11 56.96862 -40.38507 38225 ft 453 kts 265°
2026-05-04 22:11 56.96168 -40.49935 38216 ft 453 kts 265°
2026-05-04 22:12 56.95459 -40.61437 38213 ft 454 kts 265°
2026-05-04 22:12 56.94743 -40.72879 38207 ft 455 kts 265°
2026-05-04 22:13 56.94012 -40.84412 38203 ft 456 kts 265°
2026-05-04 22:13 56.93268 -40.95963 38205 ft 457 kts 264°
2026-05-04 22:14 56.92510 -41.07536 38197 ft 458 kts 264°
2026-05-04 22:14 56.91739 -41.19147 38190 ft 459 kts 264°
2026-05-04 22:15 56.90963 -41.30689 38188 ft 460 kts 264°
2026-05-04 22:15 56.90167 -41.42338 38178 ft 461 kts 264°
2026-05-04 22:16 56.89360 -41.53966 38177 ft 462 kts 264°
2026-05-04 22:16 56.88541 -41.65666 38165 ft 463 kts 264°
2026-05-04 22:17 56.87714 -41.77302 38166 ft 464 kts 263°
2026-05-04 22:17 56.86871 -41.89015 38159 ft 465 kts 263°
2026-05-04 22:18 56.86014 -42.00740 38154 ft 466 kts 263°
2026-05-04 22:18 56.85143 -42.12483 38144 ft 466 kts 263°
2026-05-04 22:19 56.84259 -42.24234 38143 ft 466 kts 263°
2026-05-04 22:19 56.83372 -42.35923 38137 ft 467 kts 263°
2026-05-04 22:20 56.82469 -42.47685 38127 ft 468 kts 263°
2026-05-04 22:20 56.81554 -42.59436 38128 ft 468 kts 262°
2026-05-04 22:21 56.80630 -42.71124 38117 ft 468 kts 262°
2026-05-04 22:21 56.79690 -42.82886 38110 ft 468 kts 262°
2026-05-04 22:22 56.78740 -42.94653 38107 ft 468 kts 262°
2026-05-04 22:22 56.77778 -43.06406 38096 ft 468 kts 262°
2026-05-04 22:23 56.76815 -43.18079 38092 ft 468 kts 261°
2026-05-04 22:23 56.75830 -43.29810 38092 ft 467 kts 261°
2026-05-04 22:24 56.74833 -43.41539 38082 ft 468 kts 261°
2026-05-04 22:24 56.73832 -43.53191 38079 ft 467 kts 261°
2026-05-04 22:25 56.72818 -43.64890 38068 ft 467 kts 261°
2026-05-04 22:25 56.71791 -43.76588 38060 ft 467 kts 260°
2026-05-04 22:26 56.70758 -43.88217 38046 ft 468 kts 260°
2026-05-04 22:26 56.69709 -43.99911 38048 ft 468 kts 260°
2026-05-04 22:27 56.68646 -44.11629 38034 ft 468 kts 260°
2026-05-04 22:27 56.67581 -44.23244 38033 ft 468 kts 259°
2026-05-04 22:28 56.66498 -44.34934 38021 ft 468 kts 259°
2026-05-04 22:28 56.65409 -44.46553 38019 ft 468 kts 259°
2026-05-04 22:29 56.64302 -44.58238 38004 ft 469 kts 259°
2026-05-04 22:29 56.63186 -44.69912 38002 ft 469 kts 259°
2026-05-04 22:30 56.62064 -44.81532 37987 ft 469 kts 259°
2026-05-04 22:30 56.60922 -44.93227 37990 ft 469 kts 258°
2026-05-04 22:31 56.59779 -45.04828 37815 ft 469 kts 258°
2026-05-04 22:31 56.59206 -45.10638 37946 ft 464 kts 257°
2026-05-04 22:31 56.58632 -45.16399 37968 ft 461 kts 257°
2026-05-04 22:32 56.57485 -45.27794 37954 ft 459 kts 257°
2026-05-04 22:32 56.56330 -45.39125 37946 ft 459 kts 256°
2026-05-04 22:33 56.55158 -45.50543 37945 ft 460 kts 256°
2026-05-04 22:33 56.53983 -45.61881 37929 ft 460 kts 256°
2026-05-04 22:34 56.52814 -45.73063 37926 ft 0 kts 256°
2026-05-04 22:34 55.85722 -50.49376 37988 ft 459 kts 250°
2026-05-04 22:34 55.84827 -50.54794 38093 ft 456 kts 245°
2026-05-04 22:34 55.84021 -50.60339 37855 ft 468 kts 250°
2026-05-04 22:35 55.83205 -50.65999 37615 ft 475 kts 248°
2026-05-04 22:35 55.81116 -50.77151 37600 ft 477 kts 242°
2026-05-04 22:36 55.78541 -50.88057 37595 ft 481 kts 239°
2026-05-04 22:36 55.75786 -50.98911 37587 ft 487 kts 239°
2026-05-04 22:37 55.72970 -51.09948 37583 ft 491 kts 239°
2026-05-04 22:37 55.70163 -51.21024 37580 ft 492 kts 239°
2026-05-04 22:38 55.67375 -51.32016 37576 ft 493 kts 239°
2026-05-04 22:38 55.64542 -51.43133 37569 ft 494 kts 239°
2026-05-04 22:39 55.61695 -51.54226 37565 ft 494 kts 239°
2026-05-04 22:39 55.58855 -51.65240 37563 ft 495 kts 239°
2026-05-04 22:40 55.55986 -51.76306 37551 ft 496 kts 239°
2026-05-04 22:40 55.53101 -51.87390 37546 ft 496 kts 239°
2026-05-04 22:41 55.50201 -51.98475 37545 ft 497 kts 239°
2026-05-04 22:41 55.47307 -52.09483 37533 ft 498 kts 239°
2026-05-04 22:42 55.44381 -52.20557 37535 ft 498 kts 239°
2026-05-04 22:42 55.41439 -52.31639 37526 ft 499 kts 238°
2026-05-04 22:43 55.38982 -52.40847 37523 ft 500 kts 238°
2026-05-04 22:43 55.36012 -52.51938 37514 ft 500 kts 238°
2026-05-04 22:44 55.33049 -52.62950 37500 ft 501 kts 238°
2026-05-04 22:44 55.30052 -52.74035 37505 ft 502 kts 238°
2026-05-04 22:45 55.27043 -52.85098 37500 ft 503 kts 238°
2026-05-04 22:45 55.22503 -53.01710 37487 ft 503 kts 238°
2026-05-04 22:46 55.19481 -53.12702 37487 ft 504 kts 238°
2026-05-04 22:46 55.16427 -53.23741 37476 ft 505 kts 238°
2026-05-04 22:47 55.13351 -53.34791 37471 ft 505 kts 238°
2026-05-04 22:47 55.10267 -53.45849 37465 ft 506 kts 238°
2026-05-04 22:48 55.07161 -53.56915 37461 ft 507 kts 238°
2026-05-04 22:48 55.04050 -53.67950 37453 ft 508 kts 238°
2026-05-04 22:49 55.00923 -53.79005 37448 ft 509 kts 237°
2026-05-04 22:49 54.97803 -53.89996 37451 ft 509 kts 237°
2026-05-04 22:50 54.94640 -54.01052 37440 ft 509 kts 237°
2026-05-04 22:50 54.91490 -54.12016 37440 ft 509 kts 237°
2026-05-04 22:51 54.88312 -54.23043 37427 ft 510 kts 237°
2026-05-04 22:51 54.85116 -54.34064 37415 ft 511 kts 237°
2026-05-04 22:52 54.81905 -54.45090 37413 ft 511 kts 237°
2026-05-04 22:52 54.78710 -54.55987 37412 ft 510 kts 237°
2026-05-04 22:53 54.75480 -54.66962 37405 ft 510 kts 237°
2026-05-04 22:53 54.72248 -54.77911 37403 ft 510 kts 237°
2026-05-04 22:54 54.69010 -54.88832 37399 ft 510 kts 237°
2026-05-04 22:54 54.65786 -54.99654 37385 ft 510 kts 237°
2026-05-04 22:55 54.62532 -55.10535 37385 ft 510 kts 237°
2026-05-04 22:55 54.59256 -55.21411 37381 ft 510 kts 237°
2026-05-04 22:56 54.55974 -55.32256 37375 ft 509 kts 237°
2026-05-04 22:56 54.52708 -55.43016 37369 ft 509 kts 237°
2026-05-04 22:57 54.49420 -55.53798 37366 ft 510 kts 237°
2026-05-04 22:57 54.46128 -55.64533 37355 ft 509 kts 237°
2026-05-04 22:58 54.42824 -55.75281 37354 ft 508 kts 237°
2026-05-04 22:58 54.39510 -55.85996 37347 ft 508 kts 237°
2026-05-04 22:59 54.36189 -55.96693 37346 ft 507 kts 237°
2026-05-04 22:59 54.32852 -56.07378 37342 ft 507 kts 237°
2026-05-04 23:00 54.29530 -56.17973 37334 ft 507 kts 237°
2026-05-04 23:00 54.26184 -56.28603 37331 ft 507 kts 237°
2026-05-04 23:01 54.22832 -56.39215 37320 ft 507 kts 237°
2026-05-04 23:01 54.19465 -56.49815 37314 ft 506 kts 237°
2026-05-04 23:02 54.16116 -56.60313 37312 ft 507 kts 237°
2026-05-04 23:02 54.12734 -56.70874 37308 ft 507 kts 237°
2026-05-04 23:03 54.09350 -56.81420 37302 ft 507 kts 237°
2026-05-04 23:03 54.05962 -56.91904 37296 ft 507 kts 237°
2026-05-04 23:04 54.02548 -57.02409 37286 ft 506 kts 237°
2026-05-04 23:04 53.98999 -57.12721 37267 ft 506 kts 235°
2026-05-04 23:05 53.95362 -57.22957 37254 ft 506 kts 235°
2026-05-04 23:05 53.91662 -57.33119 37263 ft 505 kts 233°
2026-05-04 23:06 53.87852 -57.43133 37245 ft 505 kts 233°
2026-05-04 23:06 53.84042 -57.53127 37250 ft 505 kts 233°
2026-05-04 23:07 53.80265 -57.63073 37249 ft 505 kts 234°
2026-05-04 23:07 53.76460 -57.73087 37247 ft 504 kts 234°
2026-05-04 23:08 53.72658 -57.83057 37243 ft 505 kts 234°
2026-05-04 23:08 53.68842 -57.93018 37244 ft 505 kts 234°
2026-05-04 23:09 53.65013 -58.02962 37240 ft 505 kts 234°
2026-05-04 23:09 53.61177 -58.12891 37236 ft 506 kts 234°
2026-05-04 23:10 53.57330 -58.22813 37238 ft 506 kts 234°
2026-05-04 23:10 53.53471 -58.32727 37240 ft 506 kts 234°
2026-05-04 23:11 53.49624 -58.42569 37233 ft 506 kts 233°
2026-05-04 23:11 53.45743 -58.52454 37232 ft 506 kts 234°
2026-05-04 23:12 53.41854 -58.62332 37233 ft 506 kts 233°
2026-05-04 23:12 53.37978 -58.72125 37234 ft 506 kts 233°
2026-05-04 23:13 53.34075 -58.81949 37229 ft 506 kts 233°
2026-05-04 23:13 53.30165 -58.91758 37233 ft 506 kts 233°
2026-05-04 23:14 53.26245 -59.01555 37230 ft 506 kts 233°
2026-05-04 23:14 53.22328 -59.11315 37229 ft 506 kts 233°
2026-05-04 23:15 53.18428 -59.20991 37237 ft 506 kts 233°
2026-05-04 23:15 53.14493 -59.30706 37217 ft 506 kts 233°
2026-05-04 23:16 53.10549 -59.40406 37242 ft 505 kts 233°
2026-05-04 23:16 53.06599 -59.50094 37238 ft 505 kts 233°
2026-05-04 23:17 53.02652 -59.59732 37237 ft 505 kts 233°
2026-05-04 23:17 52.98683 -59.69387 37232 ft 505 kts 233°
2026-05-04 23:18 52.94712 -59.79004 37234 ft 505 kts 233°
2026-05-04 23:18 52.90739 -59.88594 37242 ft 504 kts 233°
2026-05-04 23:19 52.86790 -59.98099 37240 ft 504 kts 233°
2026-05-04 23:19 52.82808 -60.07649 37238 ft 504 kts 233°
2026-05-04 23:20 52.78822 -60.17166 37246 ft 503 kts 233°
2026-05-04 23:20 52.74822 -60.26683 37245 ft 503 kts 233°
2026-05-04 23:21 52.70815 -60.36179 37246 ft 503 kts 233°
2026-05-04 23:21 52.66832 -60.45573 37244 ft 503 kts 233°
2026-05-04 23:22 52.62812 -60.55027 37253 ft 503 kts 233°
2026-05-04 23:22 52.58794 -60.64445 37253 ft 503 kts 233°
2026-05-04 23:23 52.54769 -60.73841 37255 ft 502 kts 233°
2026-05-04 23:23 52.50730 -60.83236 37258 ft 502 kts 233°
2026-05-04 23:24 52.46715 -60.92541 37259 ft 502 kts 233°
2026-05-04 23:24 52.42669 -61.01878 37265 ft 502 kts 233°
2026-05-04 23:25 52.38620 -61.11199 37268 ft 502 kts 233°
2026-05-04 23:25 52.34564 -61.20501 37269 ft 502 kts 233°
2026-05-04 23:26 52.30498 -61.29795 37273 ft 502 kts 233°
2026-05-04 23:26 52.26454 -61.38998 37281 ft 502 kts 233°
2026-05-04 23:27 52.22375 -61.48245 37280 ft 501 kts 233°
2026-05-04 23:27 52.18294 -61.57466 37285 ft 501 kts 233°
2026-05-04 23:28 52.14208 -61.66661 37287 ft 501 kts 233°
2026-05-04 23:28 52.10115 -61.75843 37295 ft 500 kts 232°
2026-05-04 23:29 52.06012 -61.85020 37298 ft 500 kts 232°
2026-05-04 23:29 52.01913 -61.94152 37301 ft 500 kts 232°
2026-05-04 23:30 51.97829 -62.03216 37305 ft 500 kts 232°
2026-05-04 23:30 51.93713 -62.12320 37309 ft 500 kts 232°
2026-05-04 23:31 51.89598 -62.21386 37313 ft 499 kts 232°
2026-05-04 23:31 51.85504 -62.30379 37314 ft 499 kts 232°
2026-05-04 23:32 51.81380 -62.39403 37320 ft 499 kts 232°
2026-05-04 23:32 51.77248 -62.48421 37324 ft 499 kts 232°
2026-05-04 23:33 51.73804 -62.55907 37328 ft 499 kts 232°
2026-05-04 23:33 51.69666 -62.64869 37334 ft 499 kts 232°
2026-05-04 23:34 51.65518 -62.73826 37339 ft 498 kts 232°
2026-05-04 23:34 51.61370 -62.82752 37350 ft 498 kts 232°
2026-05-04 23:35 51.57210 -62.91673 37354 ft 498 kts 232°
2026-05-04 23:35 51.53044 -63.00574 37356 ft 498 kts 232°
2026-05-04 23:36 51.48875 -63.09457 37370 ft 497 kts 232°
2026-05-04 23:36 51.44725 -63.18267 37379 ft 497 kts 232°
2026-05-04 23:37 51.40549 -63.27099 37386 ft 497 kts 232°
2026-05-04 23:37 51.36357 -63.35936 37393 ft 497 kts 232°
2026-05-04 23:38 51.32175 -63.44724 37394 ft 497 kts 233°
2026-05-04 23:38 51.27983 -63.53506 37406 ft 497 kts 233°
2026-05-04 23:39 51.23812 -63.62205 37410 ft 496 kts 233°
2026-05-04 23:39 51.19611 -63.70942 37413 ft 496 kts 233°
2026-05-04 23:40 51.15396 -63.79679 37423 ft 496 kts 233°
2026-05-04 23:40 51.11210 -63.88322 37428 ft 495 kts 233°
2026-05-04 23:41 51.06994 -63.97001 37432 ft 495 kts 233°
2026-05-04 23:41 51.02776 -64.05660 37435 ft 495 kts 233°
2026-05-04 23:42 50.98556 -64.14292 37439 ft 495 kts 233°
2026-05-04 23:42 50.94325 -64.22917 37450 ft 495 kts 232°
2026-05-04 23:43 50.90091 -64.31516 37455 ft 495 kts 232°
2026-05-04 23:43 50.85856 -64.40091 37458 ft 494 kts 233°
2026-05-04 23:44 50.81610 -64.48661 37468 ft 494 kts 232°
2026-05-04 23:44 50.77365 -64.57207 37474 ft 494 kts 232°
2026-05-04 23:45 50.73136 -64.65688 37479 ft 494 kts 232°
2026-05-04 23:45 50.68874 -64.74203 37491 ft 494 kts 232°
2026-05-04 23:46 50.64604 -64.82707 37498 ft 494 kts 232°
2026-05-04 23:46 50.60337 -64.91180 37508 ft 494 kts 232°
2026-05-04 23:47 50.56067 -64.99630 37512 ft 493 kts 232°
2026-05-04 23:47 50.51791 -65.08064 37518 ft 493 kts 232°
2026-05-04 23:48 50.47543 -65.16418 37523 ft 492 kts 232°
2026-05-04 23:48 50.43267 -65.24804 37536 ft 491 kts 232°
2026-05-04 23:49 50.38986 -65.33167 37540 ft 491 kts 232°
2026-05-04 23:49 50.34703 -65.41506 37545 ft 491 kts 232°
2026-05-04 23:50 50.30412 -65.49839 37540 ft 491 kts 232°
2026-05-04 23:50 50.26140 -65.58100 37548 ft 491 kts 232°
2026-05-04 23:51 50.21838 -65.66401 37546 ft 491 kts 232°
2026-05-04 23:51 50.17531 -65.74684 37548 ft 491 kts 232°
2026-05-04 23:52 50.13222 -65.82944 37560 ft 491 kts 232°
2026-05-04 23:52 50.08901 -65.91200 37560 ft 491 kts 232°
2026-05-04 23:53 50.04576 -65.99435 37568 ft 491 kts 232°
2026-05-04 23:53 50.00246 -66.07658 37568 ft 491 kts 232°
2026-05-04 23:54 49.95937 -66.15811 37570 ft 491 kts 231°
2026-05-04 23:54 49.91598 -66.23996 37573 ft 491 kts 231°
2026-05-04 23:55 49.87245 -66.32189 37579 ft 491 kts 231°
2026-05-04 23:56 49.80716 -66.44427 37588 ft 491 kts 231°
2026-05-04 23:56 49.76348 -66.52583 37588 ft 491 kts 231°
2026-05-04 23:57 49.72002 -66.60664 37597 ft 492 kts 231°
2026-05-04 23:57 49.67623 -66.68781 37598 ft 492 kts 231°
2026-05-04 23:58 49.63240 -66.76887 37605 ft 491 kts 231°
2026-05-04 23:58 49.58856 -66.84972 37607 ft 492 kts 231°
2026-05-04 23:59 49.54459 -66.93059 37611 ft 492 kts 231°
2026-05-04 23:59 49.50085 -67.01071 37614 ft 492 kts 231°
2026-05-05 00:00 49.45686 -67.09102 37620 ft 491 kts 231°
2026-05-05 00:00 49.41278 -67.17128 37622 ft 491 kts 231°
2026-05-05 00:01 49.36868 -67.25135 37629 ft 491 kts 231°
2026-05-05 00:01 49.32449 -67.33135 37636 ft 491 kts 231°
2026-05-05 00:02 49.28016 -67.41135 37635 ft 491 kts 231°
2026-05-05 00:02 49.23591 -67.49094 37641 ft 491 kts 231°
2026-05-05 00:03 49.19183 -67.56996 37640 ft 491 kts 231°
2026-05-05 00:03 49.14746 -67.64930 37648 ft 491 kts 231°
2026-05-05 00:04 49.10308 -67.72839 37647 ft 491 kts 231°
2026-05-05 00:04 49.05860 -67.80747 37646 ft 491 kts 231°
2026-05-05 00:05 49.01410 -67.88633 37648 ft 490 kts 231°
2026-05-05 00:05 48.96979 -67.96463 37649 ft 490 kts 231°
2026-05-05 00:06 48.92518 -68.04321 37649 ft 490 kts 231°
2026-05-05 00:06 48.88058 -68.12153 37654 ft 490 kts 231°
2026-05-05 00:07 48.83590 -68.19976 37669 ft 489 kts 231°
2026-05-05 00:07 48.79148 -68.27733 37670 ft 489 kts 231°
2026-05-05 00:08 48.74685 -68.35505 37665 ft 488 kts 231°
2026-05-05 00:08 48.70219 -68.43256 37669 ft 488 kts 231°
2026-05-05 00:09 48.65742 -68.51005 37676 ft 488 kts 231°
2026-05-05 00:09 48.61289 -68.58686 37675 ft 488 kts 231°
2026-05-05 00:10 48.56814 -68.66386 37675 ft 487 kts 231°
2026-05-05 00:10 48.52332 -68.74074 37680 ft 487 kts 231°
2026-05-05 00:11 48.47858 -68.81727 37684 ft 487 kts 231°
2026-05-05 00:11 48.43375 -68.89372 37684 ft 486 kts 231°
2026-05-05 00:12 48.38889 -68.97002 37684 ft 485 kts 231°
2026-05-05 00:12 48.34442 -69.04540 37687 ft 485 kts 231°
2026-05-05 00:13 48.29963 -69.12113 37690 ft 484 kts 231°
2026-05-05 00:13 48.25476 -69.19679 37698 ft 485 kts 231°
2026-05-05 00:14 48.20994 -69.27218 37688 ft 484 kts 231°
2026-05-05 00:14 48.16499 -69.34746 37695 ft 484 kts 231°
2026-05-05 00:15 48.12041 -69.42199 37707 ft 483 kts 231°
2026-05-05 00:15 48.07556 -69.49681 37704 ft 483 kts 231°
2026-05-05 00:16 48.03060 -69.57152 37701 ft 482 kts 231°
2026-05-05 00:16 47.98566 -69.64601 37706 ft 482 kts 231°
2026-05-05 00:17 47.94069 -69.72036 37706 ft 482 kts 231°
2026-05-05 00:17 47.89570 -69.79452 37708 ft 482 kts 231°
2026-05-05 00:18 47.85070 -69.86851 37708 ft 481 kts 231°
2026-05-05 00:18 47.80594 -69.94188 37707 ft 481 kts 231°
2026-05-05 00:19 47.76095 -70.01543 37705 ft 481 kts 231°
2026-05-05 00:19 47.71592 -70.08887 37709 ft 480 kts 231°
2026-05-05 00:20 47.67087 -70.16209 37710 ft 480 kts 231°
2026-05-05 00:20 47.62579 -70.23520 37708 ft 479 kts 231°
2026-05-05 00:21 47.58061 -70.30823 37711 ft 479 kts 231°
2026-05-05 00:21 47.53587 -70.38035 37715 ft 479 kts 231°
2026-05-05 00:22 47.49081 -70.45277 37722 ft 478 kts 231°
2026-05-05 00:22 47.44572 -70.52507 37727 ft 477 kts 231°
2026-05-05 00:23 47.40063 -70.59718 37737 ft 477 kts 231°
2026-05-05 00:23 47.35550 -70.66912 37741 ft 477 kts 231°
2026-05-05 00:24 47.31047 -70.74069 37750 ft 475 kts 231°
2026-05-05 00:24 47.26575 -70.81151 37758 ft 475 kts 231°
2026-05-05 00:25 47.22075 -70.88275 37763 ft 475 kts 231°
2026-05-05 00:25 47.17562 -70.95401 37769 ft 475 kts 231°
2026-05-05 00:26 47.13811 -71.01308 37767 ft 475 kts 231°
2026-05-05 00:26 47.09316 -71.08370 37772 ft 475 kts 231°
2026-05-05 00:27 47.04660 -71.15270 37773 ft 477 kts 228°
2026-05-05 00:27 46.99871 -71.21998 37772 ft 477 kts 227°
2026-05-05 00:28 46.95080 -71.28742 37768 ft 477 kts 228°
2026-05-05 00:28 46.90327 -71.35501 37762 ft 477 kts 228°
2026-05-05 00:29 46.85576 -71.42260 37774 ft 476 kts 228°
2026-05-05 00:29 46.80823 -71.49003 37755 ft 476 kts 228°
2026-05-05 00:30 46.76074 -71.55727 37770 ft 475 kts 228°
2026-05-05 00:30 46.71357 -71.62383 37768 ft 474 kts 228°
2026-05-05 00:31 46.66609 -71.69071 37769 ft 473 kts 228°
2026-05-05 00:31 46.61878 -71.75722 37759 ft 473 kts 228°
2026-05-05 00:32 46.57136 -71.82354 37759 ft 472 kts 228°
2026-05-05 00:32 46.52407 -71.88961 37753 ft 472 kts 228°
2026-05-05 00:33 46.47670 -71.95562 37753 ft 472 kts 228°
2026-05-05 00:33 46.42953 -72.02109 37745 ft 472 kts 228°
2026-05-05 00:34 46.38206 -72.08682 37740 ft 472 kts 228°
2026-05-05 00:34 46.33461 -72.15257 37738 ft 472 kts 228°
2026-05-05 00:35 46.28723 -72.21807 37733 ft 471 kts 228°
2026-05-05 00:35 46.23959 -72.28362 37732 ft 473 kts 227°
2026-05-05 00:36 46.19188 -72.34897 37732 ft 473 kts 227°
2026-05-05 00:36 46.14414 -72.41428 37724 ft 473 kts 227°
2026-05-05 00:37 46.09668 -72.47906 37727 ft 472 kts 227°
2026-05-05 00:37 46.04897 -72.54405 37720 ft 472 kts 227°
2026-05-05 00:38 46.00115 -72.60907 37725 ft 473 kts 227°
2026-05-05 00:38 45.95332 -72.67396 37718 ft 473 kts 227°
2026-05-05 00:39 45.90530 -72.73887 37723 ft 473 kts 227°
2026-05-05 00:39 45.85768 -72.80307 37725 ft 473 kts 227°
2026-05-05 00:40 45.80970 -72.86772 37720 ft 473 kts 227°
2026-05-05 00:40 45.76162 -72.93220 37718 ft 473 kts 227°
2026-05-05 00:41 45.71363 -72.99637 37720 ft 472 kts 227°
2026-05-05 00:41 45.66557 -73.06052 37711 ft 473 kts 227°
2026-05-05 00:42 45.61776 -73.12416 37714 ft 472 kts 227°
2026-05-05 00:42 45.56966 -73.18809 37706 ft 472 kts 227°
2026-05-05 00:43 45.52155 -73.25195 37715 ft 472 kts 227°
2026-05-05 00:43 45.47334 -73.31574 37694 ft 472 kts 227°
2026-05-05 00:44 45.42509 -73.37935 37703 ft 472 kts 227°
2026-05-05 00:44 45.37688 -73.44282 37702 ft 472 kts 227°
2026-05-05 00:45 45.32865 -73.50611 37700 ft 471 kts 227°
2026-05-05 00:45 45.28071 -73.56889 37701 ft 471 kts 227°
2026-05-05 00:46 45.23240 -73.63201 37706 ft 472 kts 227°
2026-05-05 00:46 45.18409 -73.69494 37703 ft 470 kts 227°
2026-05-05 00:47 45.13595 -73.75754 37705 ft 469 kts 227°
2026-05-05 00:47 45.08774 -73.82010 37707 ft 470 kts 227°
2026-05-05 00:48 45.03951 -73.88252 37703 ft 469 kts 227°
2026-05-05 00:48 44.99167 -73.94429 37710 ft 468 kts 226°
2026-05-05 00:49 44.94343 -74.00626 37707 ft 468 kts 226°
2026-05-05 00:49 44.89515 -74.06828 37707 ft 468 kts 226°
2026-05-05 00:50 44.84703 -74.12999 37710 ft 467 kts 226°
2026-05-05 00:50 44.79923 -74.19112 37720 ft 467 kts 226°
2026-05-05 00:51 44.75119 -74.25239 37718 ft 466 kts 226°
2026-05-05 00:51 44.70311 -74.31357 37727 ft 466 kts 226°
2026-05-05 00:52 44.65501 -74.37466 37726 ft 465 kts 226°
2026-05-05 00:52 44.60691 -74.43559 37745 ft 465 kts 226°
2026-05-05 00:53 44.55912 -74.49596 37738 ft 465 kts 226°
2026-05-05 00:53 44.51103 -74.55657 37738 ft 465 kts 226°
2026-05-05 00:54 44.46294 -74.61709 37737 ft 464 kts 226°
2026-05-05 00:54 44.41484 -74.67747 37727 ft 464 kts 226°
2026-05-05 00:55 44.36679 -74.73767 37726 ft 464 kts 226°
2026-05-05 00:55 44.31886 -74.79754 37732 ft 464 kts 226°
2026-05-05 00:56 44.27067 -74.85760 37729 ft 464 kts 226°
2026-05-05 00:56 44.22260 -74.91740 37728 ft 463 kts 226°
2026-05-05 00:57 44.17442 -74.97721 37726 ft 463 kts 226°
2026-05-05 00:57 44.12619 -75.03688 37725 ft 463 kts 226°
2026-05-05 00:58 44.07799 -75.09640 37729 ft 463 kts 226°
2026-05-05 00:58 44.03010 -75.15536 37724 ft 462 kts 226°
2026-05-05 00:59 43.98185 -75.21465 37729 ft 461 kts 226°
2026-05-05 00:59 43.93388 -75.27352 37725 ft 461 kts 226°
2026-05-05 01:00 43.88578 -75.33242 37723 ft 460 kts 226°
2026-05-05 01:00 43.83803 -75.39072 37721 ft 460 kts 226°
2026-05-05 01:01 43.79010 -75.44913 37723 ft 459 kts 226°
2026-05-05 01:01 43.74213 -75.50743 37729 ft 458 kts 226°
2026-05-05 01:02 43.69409 -75.56568 37732 ft 458 kts 226°
2026-05-05 01:02 43.64612 -75.62380 37727 ft 458 kts 226°
2026-05-05 01:03 43.59853 -75.68133 37739 ft 458 kts 226°
2026-05-05 01:03 43.55063 -75.73900 37744 ft 458 kts 226°
2026-05-05 01:04 43.50260 -75.79672 37733 ft 458 kts 225°
2026-05-05 01:04 43.43063 -75.88303 37724 ft 457 kts 225°
2026-05-05 01:05 43.38251 -75.94060 37733 ft 457 kts 225°
2026-05-05 01:05 43.33484 -75.99750 37730 ft 457 kts 225°
2026-05-05 01:06 43.28680 -76.05469 37734 ft 457 kts 225°
2026-05-05 01:06 43.23877 -76.11176 37736 ft 456 kts 225°
2026-05-05 01:07 43.19068 -76.16874 37737 ft 456 kts 225°
2026-05-05 01:07 43.13974 -76.22140 37738 ft 461 kts 217°
2026-05-05 01:08 43.08549 -76.26740 37744 ft 462 kts 216°
2026-05-05 01:08 43.03034 -76.31275 37741 ft 463 kts 216°
2026-05-05 01:09 42.97512 -76.35807 37730 ft 462 kts 216°
2026-05-05 01:09 42.91999 -76.40342 37740 ft 463 kts 216°
2026-05-05 01:10 42.86481 -76.44880 37745 ft 463 kts 216°
2026-05-05 01:10 42.80970 -76.49412 37744 ft 463 kts 216°
2026-05-05 01:11 42.75449 -76.53930 37762 ft 463 kts 216°
2026-05-05 01:11 42.69923 -76.58443 37765 ft 463 kts 216°
2026-05-05 01:12 42.64399 -76.62951 37772 ft 463 kts 216°
2026-05-05 01:12 42.58912 -76.67425 37772 ft 463 kts 216°
2026-05-05 01:13 42.53391 -76.71901 37770 ft 463 kts 216°
2026-05-05 01:13 42.47848 -76.76385 37768 ft 463 kts 216°
2026-05-05 01:14 42.42301 -76.80871 37763 ft 463 kts 216°
2026-05-05 01:14 42.36762 -76.85342 37767 ft 463 kts 216°
2026-05-05 01:15 42.31268 -76.89768 37777 ft 463 kts 216°
2026-05-05 01:15 42.25735 -76.94213 37775 ft 463 kts 216°
2026-05-05 01:16 42.20200 -76.98653 37782 ft 463 kts 216°
2026-05-05 01:16 42.14659 -77.03091 37759 ft 462 kts 216°
2026-05-05 01:17 42.10054 -77.06768 37770 ft 463 kts 216°
2026-05-05 01:17 42.03609 -77.11903 37774 ft 463 kts 215°
2026-05-05 01:18 41.98063 -77.16312 37773 ft 463 kts 215°
2026-05-05 01:18 41.93421 -77.19996 37777 ft 462 kts 215°
2026-05-05 01:19 41.87872 -77.24394 37784 ft 462 kts 215°
2026-05-05 01:19 41.82360 -77.28755 37791 ft 462 kts 215°
2026-05-05 01:20 41.76821 -77.33126 37798 ft 462 kts 215°
2026-05-05 01:20 41.71286 -77.37484 37804 ft 462 kts 215°
2026-05-05 01:21 41.65748 -77.41836 37798 ft 461 kts 215°
2026-05-05 01:21 41.60211 -77.46181 37812 ft 461 kts 215°
2026-05-05 01:22 41.54679 -77.50513 37811 ft 461 kts 215°
2026-05-05 01:22 41.49136 -77.54845 37810 ft 461 kts 215°
2026-05-05 01:23 41.43629 -77.59138 37810 ft 461 kts 215°
2026-05-05 01:23 41.38072 -77.63461 37812 ft 461 kts 215°
2026-05-05 01:24 41.32527 -77.67774 37815 ft 461 kts 215°
2026-05-05 01:24 41.27011 -77.72049 37819 ft 461 kts 215°
2026-05-05 01:25 41.21457 -77.76341 37819 ft 462 kts 215°
2026-05-05 01:25 41.15901 -77.80624 37826 ft 462 kts 215°
2026-05-05 01:26 41.10343 -77.84909 37836 ft 462 kts 215°
2026-05-05 01:26 41.04771 -77.89196 37842 ft 463 kts 215°
2026-05-05 01:27 40.99200 -77.93472 37845 ft 463 kts 214°
2026-05-05 01:27 40.93661 -77.97832 37849 ft 461 kts 219°
2026-05-05 01:28 40.88953 -78.03358 37849 ft 453 kts 231°
2026-05-05 01:28 40.84783 -78.09590 37850 ft 452 kts 233°
2026-05-05 01:29 40.80687 -78.15911 37845 ft 452 kts 233°
2026-05-05 01:29 40.76581 -78.22212 37843 ft 453 kts 233°
2026-05-05 01:30 40.72449 -78.28497 37847 ft 454 kts 232°
2026-05-05 01:30 40.68304 -78.34779 37846 ft 454 kts 232°
2026-05-05 01:31 40.64172 -78.41023 37854 ft 454 kts 232°
2026-05-05 01:31 40.60020 -78.47288 37856 ft 454 kts 232°
2026-05-05 01:32 40.55868 -78.53541 37861 ft 453 kts 232°
2026-05-05 01:32 40.51703 -78.59800 37872 ft 453 kts 232°
2026-05-05 01:33 40.47577 -78.65990 37879 ft 453 kts 232°
2026-05-05 01:33 40.43415 -78.72223 37886 ft 453 kts 232°
2026-05-05 01:34 40.39251 -78.78442 37877 ft 453 kts 232°
2026-05-05 01:34 40.35100 -78.84625 37891 ft 454 kts 232°
2026-05-05 01:35 40.30928 -78.90828 37886 ft 454 kts 232°
2026-05-05 01:35 40.26744 -78.97043 37886 ft 454 kts 232°
2026-05-05 01:36 40.22564 -79.03237 37887 ft 454 kts 232°
2026-05-05 01:36 40.18381 -79.09422 37885 ft 454 kts 232°
2026-05-05 01:37 40.14185 -79.15616 37872 ft 454 kts 232°
2026-05-05 01:37 40.10034 -79.21832 37867 ft 454 kts 232°
2026-05-05 01:38 40.05900 -79.28084 37868 ft 455 kts 232°
2026-05-05 01:38 40.01752 -79.34328 37885 ft 455 kts 232°
2026-05-05 01:39 39.97596 -79.40557 37886 ft 455 kts 232°
2026-05-05 01:39 39.93464 -79.46732 37888 ft 456 kts 232°
2026-05-05 01:40 39.89267 -79.52997 37895 ft 456 kts 232°
2026-05-05 01:40 39.85116 -79.59178 37895 ft 456 kts 232°
2026-05-05 01:41 39.80935 -79.65391 37890 ft 456 kts 232°
2026-05-05 01:41 39.76752 -79.71597 37889 ft 457 kts 232°
2026-05-05 01:42 39.72559 -79.77803 37899 ft 458 kts 232°
2026-05-05 01:42 39.68335 -79.84043 37905 ft 458 kts 231°
2026-05-05 01:43 39.64120 -79.90260 37905 ft 459 kts 231°
2026-05-05 01:43 39.59921 -79.96438 37905 ft 459 kts 231°
2026-05-05 01:44 39.55686 -80.02656 37905 ft 460 kts 231°
2026-05-05 01:44 39.51450 -80.08868 37899 ft 460 kts 231°
2026-05-05 01:45 39.47201 -80.15090 37895 ft 460 kts 231°
2026-05-05 01:45 39.42985 -80.21245 37899 ft 460 kts 231°
2026-05-05 01:46 39.38736 -80.27437 37905 ft 460 kts 231°
2026-05-05 01:46 39.34483 -80.33627 37903 ft 460 kts 231°
2026-05-05 01:47 39.30227 -80.39810 37901 ft 460 kts 231°
2026-05-05 01:47 39.25995 -80.45946 37897 ft 460 kts 231°
2026-05-05 01:48 39.21729 -80.52118 37887 ft 460 kts 231°
2026-05-05 01:48 39.17450 -80.58295 37881 ft 460 kts 231°
2026-05-05 01:49 39.13184 -80.64440 37880 ft 460 kts 231°
2026-05-05 01:49 39.08907 -80.70591 37880 ft 460 kts 231°
2026-05-05 01:50 39.04658 -80.76690 37874 ft 461 kts 231°
2026-05-05 01:50 39.00372 -80.82829 37892 ft 460 kts 231°
2026-05-05 01:51 38.96132 -80.88994 37873 ft 460 kts 232°
2026-05-05 01:51 38.91905 -80.95181 37875 ft 460 kts 231°
2026-05-05 01:52 38.87692 -81.01325 37892 ft 460 kts 231°
2026-05-05 01:52 38.83447 -81.07490 37870 ft 461 kts 231°
2026-05-05 01:53 38.79192 -81.13649 37880 ft 461 kts 231°
2026-05-05 01:53 38.74958 -81.19760 37881 ft 461 kts 231°
2026-05-05 01:54 38.70699 -81.25907 37882 ft 461 kts 231°
2026-05-05 01:54 38.66429 -81.32056 37887 ft 461 kts 231°
2026-05-05 01:55 38.62166 -81.38182 37887 ft 461 kts 231°
2026-05-05 01:55 38.57919 -81.44273 37882 ft 461 kts 231°
2026-05-05 01:56 38.53637 -81.50402 37885 ft 462 kts 231°
2026-05-05 01:56 38.49352 -81.56522 37885 ft 462 kts 231°
2026-05-05 01:57 38.45093 -81.62593 37888 ft 462 kts 231°
2026-05-05 01:57 38.40800 -81.68703 37886 ft 462 kts 231°
2026-05-05 01:58 38.36289 -81.74589 37889 ft 467 kts 223°
2026-05-05 01:58 38.30686 -81.78856 37890 ft 475 kts 205°
2026-05-05 01:59 38.24450 -81.81742 37890 ft 478 kts 202°
2026-05-05 01:59 38.18171 -81.84417 37890 ft 479 kts 202°
2026-05-05 02:00 38.11853 -81.87125 37895 ft 479 kts 203°
2026-05-05 02:00 38.05550 -81.89861 37901 ft 479 kts 203°
2026-05-05 02:01 37.99229 -81.92614 37899 ft 479 kts 203°
2026-05-05 02:01 37.92916 -81.95362 37905 ft 479 kts 203°
2026-05-05 02:02 37.86607 -81.98101 37911 ft 479 kts 203°
2026-05-05 02:02 37.80337 -82.00817 37911 ft 479 kts 203°
2026-05-05 02:03 37.74030 -82.03545 37913 ft 479 kts 203°
2026-05-05 02:03 37.67704 -82.06275 37917 ft 479 kts 203°
2026-05-05 02:04 37.61398 -82.08990 37912 ft 478 kts 203°
2026-05-05 02:04 37.55101 -82.11703 37921 ft 479 kts 203°
2026-05-05 02:05 37.48826 -82.14398 37923 ft 478 kts 203°
2026-05-05 02:05 37.42532 -82.17093 37923 ft 478 kts 203°
2026-05-05 02:06 37.36226 -82.19790 37929 ft 478 kts 203°
2026-05-05 02:06 37.29927 -82.22479 37930 ft 478 kts 203°
2026-05-05 02:07 37.23623 -82.25167 37941 ft 478 kts 203°
2026-05-05 02:07 37.17328 -82.27847 37966 ft 478 kts 203°
2026-05-05 02:08 37.11023 -82.30506 37979 ft 478 kts 198°
2026-05-05 02:08 37.05797 -82.32708 37994 ft 476 kts 204°
2026-05-05 02:09 36.99702 -82.36024 38006 ft 475 kts 205°
2026-05-05 02:09 36.92788 -82.39908 38008 ft 469 kts 205°
2026-05-05 02:10 36.87761 -82.42739 38007 ft 474 kts 205°
2026-05-05 02:10 36.81741 -82.46124 37991 ft 479 kts 205°
2026-05-05 02:11 36.75634 -82.49550 37981 ft 482 kts 205°
2026-05-05 02:11 36.69497 -82.52991 37978 ft 484 kts 205°
2026-05-05 02:12 36.60294 -82.58142 37984 ft 486 kts 205°
2026-05-05 02:13 36.54112 -82.61598 37989 ft 486 kts 205°
2026-05-05 02:13 36.47988 -82.65017 37673 ft 471 kts 205°
2026-05-05 02:13 36.45027 -82.66677 37412 ft 462 kts 206°
2026-05-05 02:14 36.42129 -82.68303 37140 ft 462 kts 206°
2026-05-05 02:14 36.39197 -82.69941 36879 ft 463 kts 205°
2026-05-05 02:14 36.36257 -82.71578 36618 ft 461 kts 205°
2026-05-05 02:14 36.33342 -82.73198 36358 ft 458 kts 205°
2026-05-05 02:15 36.30454 -82.74801 36115 ft 455 kts 205°
2026-05-05 02:15 36.24702 -82.77997 36009 ft 451 kts 206°
2026-05-05 02:16 36.19033 -82.81305 36008 ft 450 kts 207°
2026-05-05 02:16 36.13380 -82.84641 36008 ft 451 kts 206°
2026-05-05 02:17 36.07653 -82.87809 36001 ft 451 kts 206°
2026-05-05 02:17 36.01970 -82.91104 35993 ft 450 kts 207°
2026-05-05 02:18 35.96317 -82.94455 35987 ft 450 kts 207°
2026-05-05 02:18 35.90705 -82.97796 35993 ft 450 kts 208°
2026-05-05 02:19 35.85071 -83.01154 35715 ft 446 kts 207°
2026-05-05 02:19 35.82300 -83.02808 35474 ft 436 kts 207°
2026-05-05 02:19 35.79600 -83.04419 35236 ft 427 kts 207°
2026-05-05 02:19 35.76940 -83.06010 34992 ft 424 kts 207°
2026-05-05 02:20 35.74286 -83.07583 34778 ft 423 kts 207°
2026-05-05 02:20 35.71623 -83.09127 34530 ft 422 kts 207°
2026-05-05 02:20 35.68978 -83.10658 34288 ft 420 kts 207°
2026-05-05 02:20 35.66348 -83.12181 34055 ft 417 kts 206°
2026-05-05 02:21 35.63730 -83.13699 33786 ft 414 kts 207°
2026-05-05 02:21 35.61123 -83.15211 33519 ft 413 kts 206°
2026-05-05 02:21 35.58537 -83.16711 33252 ft 411 kts 206°
2026-05-05 02:21 35.55952 -83.18208 32990 ft 409 kts 206°
2026-05-05 02:22 35.53381 -83.19696 32725 ft 408 kts 206°
2026-05-05 02:22 35.50813 -83.21183 32458 ft 407 kts 206°
2026-05-05 02:22 35.48250 -83.22663 32208 ft 406 kts 206°
2026-05-05 02:22 35.45699 -83.24137 31957 ft 405 kts 206°
2026-05-05 02:23 35.43181 -83.25593 31702 ft 403 kts 206°
2026-05-05 02:23 35.40613 -83.27064 31444 ft 403 kts 206°
2026-05-05 02:23 35.38103 -83.28479 31205 ft 401 kts 205°
2026-05-05 02:23 35.35563 -83.29911 30958 ft 401 kts 205°
2026-05-05 02:24 35.33033 -83.31338 30703 ft 399 kts 205°
2026-05-05 02:24 35.30533 -83.32749 30465 ft 391 kts 205°
2026-05-05 02:24 35.28093 -83.34130 30238 ft 383 kts 205°
2026-05-05 02:24 35.25685 -83.35496 29982 ft 379 kts 205°
2026-05-05 02:25 35.23318 -83.36837 29709 ft 379 kts 205°
2026-05-05 02:25 35.20891 -83.38208 29426 ft 379 kts 205°
2026-05-05 02:25 35.18535 -83.39536 29149 ft 377 kts 205°
2026-05-05 02:25 35.16161 -83.40872 28885 ft 373 kts 205°
2026-05-05 02:26 35.13859 -83.42169 28630 ft 354 kts 205°
2026-05-05 02:26 35.11665 -83.43413 28389 ft 343 kts 206°
2026-05-05 02:26 35.09510 -83.44639 28136 ft 340 kts 205°
2026-05-05 02:26 35.07363 -83.45855 27874 ft 340 kts 205°
2026-05-05 02:27 35.05217 -83.47080 27606 ft 340 kts 206°
2026-05-05 02:27 35.03087 -83.48315 27337 ft 339 kts 206°
2026-05-05 02:27 35.00959 -83.49546 27087 ft 338 kts 206°
2026-05-05 02:27 34.98834 -83.50773 26838 ft 336 kts 206°
2026-05-05 02:28 34.96724 -83.51990 26576 ft 335 kts 205°
2026-05-05 02:28 34.94642 -83.53189 26328 ft 334 kts 206°
2026-05-05 02:28 34.92538 -83.54400 26081 ft 333 kts 205°
2026-05-05 02:28 34.90444 -83.55603 25837 ft 332 kts 205°
2026-05-05 02:29 34.88352 -83.56805 25591 ft 331 kts 205°
2026-05-05 02:29 34.86270 -83.58000 25349 ft 330 kts 205°
2026-05-05 02:29 34.84183 -83.59197 25116 ft 329 kts 205°
2026-05-05 02:29 34.82117 -83.60382 24881 ft 325 kts 205°
2026-05-05 02:30 34.80112 -83.61533 24679 ft 319 kts 205°
2026-05-05 02:30 34.78129 -83.62674 24438 ft 313 kts 205°
2026-05-05 02:30 34.76161 -83.63805 24113 ft 311 kts 205°
2026-05-05 02:30 34.74210 -83.64926 23795 ft 309 kts 205°
2026-05-05 02:31 34.72265 -83.66042 23454 ft 309 kts 205°
2026-05-05 02:31 34.70322 -83.67154 23072 ft 307 kts 205°
2026-05-05 02:31 34.68395 -83.68253 22698 ft 305 kts 205°
2026-05-05 02:31 34.66491 -83.69340 22329 ft 303 kts 205°
2026-05-05 02:32 34.64585 -83.70428 21962 ft 301 kts 205°
2026-05-05 02:32 34.62700 -83.71504 21600 ft 298 kts 205°
2026-05-05 02:32 34.60831 -83.72576 21248 ft 296 kts 205°
2026-05-05 02:32 34.58969 -83.73639 20871 ft 294 kts 205°
2026-05-05 02:33 34.57120 -83.74696 20495 ft 293 kts 205°
2026-05-05 02:33 34.55279 -83.75747 20130 ft 291 kts 205°
2026-05-05 02:33 34.53455 -83.76789 19774 ft 289 kts 205°
2026-05-05 02:33 34.51641 -83.77821 19411 ft 287 kts 205°
2026-05-05 02:34 34.49834 -83.78850 19048 ft 286 kts 205°
2026-05-05 02:34 34.48056 -83.79863 18701 ft 284 kts 205°
2026-05-05 02:34 34.46268 -83.80881 18351 ft 283 kts 205°
2026-05-05 02:34 34.44488 -83.81895 17943 ft 282 kts 205°
2026-05-05 02:35 34.42712 -83.82904 17554 ft 280 kts 205°
2026-05-05 02:35 34.40949 -83.83907 17170 ft 279 kts 205°
2026-05-05 02:35 34.39201 -83.84902 16790 ft 277 kts 204°
2026-05-05 02:35 34.37477 -83.85882 16416 ft 276 kts 204°
2026-05-05 02:36 34.35743 -83.86868 16046 ft 275 kts 204°
2026-05-05 02:36 34.34012 -83.87851 15672 ft 274 kts 204°
2026-05-05 02:36 34.32233 -83.88694 15313 ft 274 kts 198°
2026-05-05 02:36 34.30444 -83.89455 14911 ft 274 kts 199°
2026-05-05 02:37 34.28653 -83.90258 14544 ft 273 kts 199°
2026-05-05 02:37 34.26882 -83.91073 14202 ft 271 kts 199°
2026-05-05 02:37 34.25119 -83.91894 13849 ft 270 kts 199°
2026-05-05 02:37 34.23377 -83.92714 13558 ft 266 kts 200°
2026-05-05 02:38 34.21701 -83.93509 13281 ft 251 kts 200°
2026-05-05 02:38 34.20102 -83.94271 12755 ft 245 kts 200°
2026-05-05 02:38 34.18523 -83.95025 12158 ft 242 kts 200°
2026-05-05 02:38 34.16963 -83.95769 11594 ft 239 kts 200°
2026-05-05 02:39 34.15427 -83.96498 11072 ft 237 kts 200°
2026-05-05 02:39 34.13920 -83.97218 10737 ft 226 kts 200°
2026-05-05 02:39 34.12490 -83.97904 10584 ft 224 kts 200°
2026-05-05 02:39 34.11030 -83.98599 10451 ft 226 kts 199°
2026-05-05 02:40 34.09563 -83.99296 10328 ft 226 kts 199°
2026-05-05 02:40 34.08119 -83.99983 10215 ft 217 kts 200°
2026-05-05 02:40 34.06762 -84.00632 10120 ft 203 kts 200°
2026-05-05 02:40 34.05461 -84.01259 9987 ft 201 kts 200°
2026-05-05 02:41 34.04161 -84.01883 9762 ft 201 kts 200°
2026-05-05 02:41 34.02861 -84.02501 9543 ft 200 kts 199°
2026-05-05 02:41 34.01578 -84.03109 9345 ft 200 kts 199°
2026-05-05 02:41 34.00286 -84.03722 9129 ft 199 kts 199°
2026-05-05 02:42 33.98999 -84.04330 8920 ft 198 kts 200°
2026-05-05 02:42 33.97718 -84.04939 8711 ft 197 kts 199°
2026-05-05 02:42 33.96607 -84.05885 8546 ft 200 kts 228°
2026-05-05 02:42 33.95727 -84.07165 8450 ft 196 kts 226°
2026-05-05 02:43 33.94846 -84.08407 8189 ft 195 kts 225°
2026-05-05 02:43 33.93962 -84.09629 7955 ft 192 kts 223°
2026-05-05 02:43 33.92973 -84.10686 7861 ft 190 kts 209°
2026-05-05 02:43 33.91760 -84.11327 7671 ft 191 kts 195°
2026-05-05 02:44 33.90472 -84.11788 7283 ft 194 kts 193°
2026-05-05 02:44 33.89200 -84.12217 7007 ft 190 kts 193°
2026-05-05 02:44 33.87929 -84.12647 6803 ft 190 kts 193°
2026-05-05 02:44 33.86653 -84.13074 6598 ft 190 kts 193°
2026-05-05 02:45 33.85384 -84.13497 6397 ft 189 kts 193°
2026-05-05 02:45 33.84126 -84.13920 6194 ft 187 kts 192°
2026-05-05 02:45 33.82873 -84.14341 5988 ft 186 kts 192°
2026-05-05 02:45 33.81621 -84.14760 5802 ft 186 kts 192°
2026-05-05 02:46 33.80375 -84.15176 5598 ft 185 kts 192°
2026-05-05 02:46 33.79141 -84.15590 5389 ft 183 kts 192°
2026-05-05 02:46 33.77911 -84.16003 5204 ft 183 kts 192°
2026-05-05 02:46 33.76702 -84.16405 5010 ft 182 kts 192°
2026-05-05 02:47 33.75485 -84.16810 4821 ft 181 kts 192°
2026-05-05 02:47 33.74277 -84.17215 4615 ft 180 kts 192°
2026-05-05 02:47 33.73064 -84.17620 4425 ft 180 kts 192°
2026-05-05 02:47 33.71861 -84.18022 4305 ft 179 kts 192°
2026-05-05 02:48 33.70660 -84.18422 4223 ft 176 kts 192°
2026-05-05 02:48 33.69515 -84.18810 4156 ft 169 kts 192°
2026-05-05 02:48 33.68389 -84.19195 4085 ft 168 kts 192°
2026-05-05 02:48 33.67268 -84.19573 4017 ft 167 kts 192°
2026-05-05 02:49 33.66176 -84.20012 3992 ft 170 kts 200°
2026-05-05 02:49 33.65274 -84.20966 4011 ft 178 kts 234°
2026-05-05 02:49 33.64864 -84.22356 3984 ft 182 kts 255°
2026-05-05 02:49 33.64854 -84.23901 3797 ft 186 kts 265°
2026-05-05 02:50 33.64915 -84.25457 3529 ft 183 kts 263°
2026-05-05 02:50 33.64932 -84.26964 3278 ft 176 kts 262°
2026-05-05 02:50 33.64946 -84.28373 3056 ft 165 kts 262°
2026-05-05 02:50 33.64942 -84.29693 2845 ft 152 kts 260°
2026-05-05 02:51 33.64941 -84.30913 2665 ft 143 kts 260°
2026-05-05 02:51 33.64941 -84.32107 2468 ft 143 kts 259°
2026-05-05 02:51 33.64940 -84.33310 2275 ft 144 kts 260°
2026-05-05 02:51 33.64942 -84.34512 2085 ft 144 kts 260°
2026-05-05 02:52 33.64944 -84.35721 1883 ft 144 kts 261°
2026-05-05 02:52 33.64943 -84.36916 1699 ft 143 kts 262°
2026-05-05 02:52 33.64945 -84.38122 1507 ft 145 kts 264°
2026-05-05 02:52 33.64947 -84.39331 1308 ft 146 kts 264°
2026-05-05 02:53 33.64947 -84.40547 1116 ft 146 kts 264°
2026-05-05 02:53 33.64957 -84.41752 1013 ft 136 kts 268°
2026-05-05 02:53 33.64959 -84.42630 1021 ft 65 kts 269°
2026-05-05 02:53 33.64957 -84.42918 1021 ft 25 kts 270°
2026-05-05 02:54 33.64945 -84.43118 1023 ft 23 kts 257°
2026-05-05 02:54 33.64881 -84.43278 1024 ft 20 kts 219°
2026-05-05 02:54 33.64799 -84.43244 1028 ft 12 kts 107°
2026-05-05 02:54 33.64785 -84.43149 1029 ft 12 kts 98°
2026-05-05 02:55 33.64787 -84.43041 1028 ft 14 kts 84°
2026-05-05 02:55 33.64775 -84.42915 1028 ft 16 kts 121°
2026-05-05 02:55 33.64687 -84.42870 1031 ft 14 kts 165°
2026-05-05 02:55 33.64625 -84.42841 1029 ft 15 kts 157°
2026-05-05 02:56 33.64517 -84.42781 1027 ft 19 kts 155°
2026-05-05 02:56 33.64385 -84.42741 1023 ft 20 kts 175°
2026-05-05 02:56 33.64341 -84.42691 1019 ft 1 kts 83°
2026-05-05 02:56 33.64343 -84.42681 1020 ft 2 kts 76°
2026-05-05 02:57 33.64348 -84.42632 1023 ft 0 kts 88°